Date,TemperatureHighF,TemperatureAvgF,TemperatureLowF,DewpointHighF,DewpointAvgF,DewpointLowF,HumidityHigh,HumidityAvg,HumidityLow,PressureMaxIn,PressureMinIn,WindSpeedMaxMPH,WindSpeedAvgMPH,GustSpeedMaxMPH,PrecipitationSumIn
2013-1-1,71.0,38.5,32.0,25.0,20.9,19.0,66,50,18,30.30,30.17,5,1,10,0.02
2013-1-2,51.0,37.9,28.0,22.0,20.7,19.0,73,52,31,30.22,30.09,8,3,13,0.02
2013-1-3,48.0,37.6,30.0,29.0,22.3,16.0,80,55,38,30.30,30.12,10,3,17,0.00
2013-1-4,48.0,33.3,27.0,27.0,25.0,23.0,86,73,42,30.38,30.28,5,1,9,0.02
2013-1-5,55.0,39.0,28.0,29.0,21.3,11.0,88,55,18,30.42,30.32,7,2,10,0.02
2013-1-6,56.0,41.7,32.0,25.0,18.6,15.0,58,41,21,30.34,30.06,10,4,16,0.00
2013-1-7,54.0,41.5,33.0,26.0,23.3,17.0,66,50,24,30.06,29.89,15,4,22,0.00
2013-1-8,53.0,43.4,33.0,27.0,23.7,20.0,67,47,29,30.20,29.98,11,5,16,0.00
2013-1-9,60.0,47.4,35.0,22.0,17.8,13.0,55,33,17,30.36,30.19,8,2,13,0.00
2013-1-10,61.0,48.9,35.0,24.0,19.0,13.0,51,32,18,30.19,29.93,14,4,26,0.00
2013-1-11,52.0,35.4,27.0,32.0,18.6,9.0,93,52,28,30.13,29.96,23,8,32,0.00
2013-1-12,37.0,27.9,19.0,12.0,8.1,5.0,65,44,27,30.14,30.01,14,2,23,0.00
2013-1-13,39.0,27.4,17.0,10.0,6.1,-2.0,62,42,20,30.15,30.01,10,2,15,0.00
2013-1-14,35.0,27.4,21.0,8.0,3.8,1.0,50,37,25,30.21,30.06,13,5,18,0.00
2013-1-15,37.0,25.9,15.0,3.0,-0.3,-3.0,53,33,19,30.39,30.21,8,2,14,0.00
2013-1-16,51.0,36.2,23.0,6.0,1.6,-2.0,33,24,15,30.44,30.31,10,3,14,0.00
2013-1-17,58.0,43.0,31.0,15.0,10.0,5.0,36,27,17,30.42,30.30,10,4,14,0.00
2013-1-18,63.0,47.1,35.0,18.0,15.8,13.0,48,30,14,30.39,30.25,9,4,14,0.00
2013-1-19,67.0,52.6,40.0,29.0,17.9,14.0,39,26,15,30.38,30.26,7,2,10,0.00
2013-1-20,68.0,53.8,43.0,31.0,23.5,17.0,44,31,23,30.32,30.17,7,2,10,0.00
2013-1-21,69.0,55.8,45.0,30.0,26.1,23.0,43,33,22,30.28,30.17,5,2,9,0.00
2013-1-22,70.0,57.2,45.0,35.0,26.7,22.0,64,33,19,30.36,30.26,7,2,11,0.00
2013-1-23,72.0,58.5,46.0,30.0,26.3,23.0,40,30,20,30.41,30.29,7,3,11,0.00
2013-1-24,64.0,55.2,51.0,44.0,36.4,28.0,69,50,34,30.38,30.32,6,0,9,0.00
2013-1-25,68.0,58.3,48.0,48.0,41.4,40.0,76,55,38,30.37,30.18,8,2,14,0.00
2013-1-26,64.0,56.2,51.0,54.0,47.8,43.0,95,74,56,30.18,30.07,15,6,28,0.07
2013-1-27,60.0,52.0,46.0,49.0,45.0,40.0,96,78,53,30.17,30.07,8,1,12,0.10
2013-1-28,54.0,45.7,34.0,42.0,37.4,31.0,93,74,45,30.08,30.01,19,8,30,0.05
2013-1-29,42.0,35.2,30.0,31.0,23.9,16.0,96,67,35,30.25,30.05,25,11,37,0.07
2013-1-30,50.0,38.9,30.0,23.0,18.6,10.0,71,47,21,30.41,30.25,7,2,12,0.01
2013-1-31,56.0,47.4,35.0,25.0,22.6,18.0,52,38,28,30.33,30.24,7,3,10,0.00